Overview Statistics Trail Chart Weather Telemetry Raw packets
 

This is the latest recevied weather packets stored in our database for station/object N9BLE. If no packets are shown the sender has not sent any weather packets the latest 10 day(s).

<< 54 55 56 57 58 59 60 >>
Time Temp. Humidity Pressure Rain* Wind** Luminosity Snow
1777681169 6.67° C 74% 1021 hPa 0 mm - 18 W/m² -
1777680866 6.67° C 75% 1020.8 hPa 0 mm - 21 W/m² -
1777680564 6.67° C 73% 1020.8 hPa 0 mm - 23 W/m² -
1777680269 7.22° C 72% 1021 hPa 0 mm - 30 W/m² -
1777679958 7.22° C 74% 1021 hPa 0 mm - 39 W/m² -
1777679654 7.22° C 74% 1021 hPa 0 mm - 52 W/m² -
1777679349 7.22° C 74% 1021.1 hPa 0 mm - 63 W/m² -
1777679046 7.22° C 75% 1021 hPa 0 mm - 46 W/m² -
1777678745 7.22° C 73% 1021 hPa 0 mm - 23 W/m² -
1777678442 7.22° C 74% 1020.9 hPa 0 mm - 19 W/m² -
1777678137 7.22° C 73% 1021 hPa 0 mm - 31 W/m² -
1777677835 7.22° C 73% 1021 hPa 0 mm - 41 W/m² -
1777677532 7.78° C 73% 1020.9 hPa 0 mm - 59 W/m² -
1777677230 7.78° C 73% 1021 hPa 0 mm - 82 W/m² -
1777676928 7.22° C 72% 1020.9 hPa 0 mm - 59 W/m² -
1777676627 7.78° C 71% 1021.2 hPa 0 mm - 64 W/m² -
1777676324 7.78° C 69% 1020.9 hPa 0 mm - 60 W/m² -
1777676022 7.78° C 69% 1021 hPa 0 mm - 48 W/m² -
1777675717 8.33° C 67% 1021 hPa 0 mm - 80 W/m² -
1777675415 8.89° C 62% 1021 hPa 0 mm - 80 W/m² -
1777675111 9.44° C 63% 1020.8 hPa 0 mm - 116 W/m² -
1777674807 9.44° C 60% 1020.9 hPa 0 mm - 128 W/m² -
1777674503 10° C 59% 1020.9 hPa 0 mm - 152 W/m² -
1777674201 10° C 59% 1020.9 hPa 0 mm - 187 W/m² -
1777673897 10° C 56% 1021 hPa 0 mm - 266 W/m² -

* Rain latest hour (hover to see other rain measurements)
** Current wind speed in m/s (hover to see current wind gust speed)